When you browse on this site, cookies collect data to enhance your experience and personalize the content and advertising you see.
Visit our Privacy Policy to learn more. By continuing to use the site, you agree to this use of cookies and data.
  • In Netherlands
  • List of Countries
  • For 7 days
  • Water Temperature
  • Weather Map
  • Weather Widgets
  • user-avatar
    Login

    Hourly Weather Svinovo

    Today, 13 December, Friday

    Time Temperature Precipitation Wind Pressure Humidity
    00:00 -1°C° 0 mm 4 mps 747 mmHg 89%
    01:00 -1°C° 0 mm 4 mps 747 mmHg 90%
    02:00 -1°C° 0 mm 4 mps 747 mmHg 91%
    03:00 -1°C° 0 mm 4 mps 747 mmHg 90%
    04:00 -1°C° 0 mm 4 mps 746 mmHg 90%
    05:00 -1°C° 0 mm 4 mps 746 mmHg 90%
    06:00 -1°C° 0 mm 4 mps 746 mmHg 89%
    07:00 -1°C° 0 mm 4 mps 746 mmHg 88%
    08:00 -2°C° 0 mm 4 mps 746 mmHg 87%
    09:00 -1°C° 0 mm 4 mps 746 mmHg 86%
    10:00 -1°C° 0 mm 4 mps 746 mmHg 85%
    11:00 -1°C° 0 mm 4 mps 746 mmHg 83%
    12:00 -1°C° 0 mm 4 mps 745 mmHg 84%
    13:00 -1°C° 0 mm 3 mps 745 mmHg 85%
    14:00 -1°C° 0 mm 3 mps 745 mmHg 86%
    15:00 -1°C° 0 mm 3 mps 745 mmHg 87%
    16:00 -1°C° 0 mm 3 mps 745 mmHg 88%
    17:00 -2°C° 0 mm 4 mps 744 mmHg 88%
    18:00 -1°C° 0 mm 3 mps 744 mmHg 88%
    19:00 -1°C° 0 mm 3 mps 744 mmHg 88%
    20:00 -1°C° 0 mm 3 mps 745 mmHg 88%
    21:00 -1°C° 0 mm 3 mps 744 mmHg 87%
    22:00 -2°C° 0 mm 4 mps 744 mmHg 86%
    23:00 -2°C° 0 mm 4 mps 744 mmHg 85%

    Tomorrow, 14 December, Saturday

    Time Temperature Precipitation Wind Pressure Humidity
    00:00 -2°C° 0 mm 4 mps 744 mmHg 87%
    01:00 -2°C° 0 mm 4 mps 745 mmHg 88%
    02:00 -1°C° 0 mm 3 mps 745 mmHg 89%
    03:00 -1°C° 0 mm 3 mps 745 mmHg 89%
    04:00 -2°C° 0 mm 4 mps 744 mmHg 88%
    05:00 -2°C° 0 mm 4 mps 744 mmHg 88%
    06:00 -1°C° 0 mm 3 mps 744 mmHg 88%
    07:00 -1°C° 0 mm 3 mps 745 mmHg 88%
    08:00 -1°C° 0 mm 3 mps 745 mmHg 88%
    09:00 -2°C° 0 mm 4 mps 745 mmHg 86%
    10:00 -2°C° 0 mm 4 mps 745 mmHg 85%
    11:00 -1°C° 0 mm 4 mps 745 mmHg 84%
    12:00 -2°C° 0 mm 4 mps 745 mmHg 84%
    13:00 -2°C° 0 mm 4 mps 745 mmHg 84%
    14:00 -2°C° 0 mm 4 mps 745 mmHg 84%
    15:00 -2°C° 0 mm 4 mps 745 mmHg 85%
    16:00 -2°C° 0 mm 4 mps 744 mmHg 86%
    17:00 -2°C° 0 mm 4 mps 744 mmHg 87%
    18:00 -2°C° 0 mm 4 mps 744 mmHg 87%
    19:00 -2°C° 0 mm 4 mps 744 mmHg 86%
    20:00 -2°C° 0 mm 4 mps 744 mmHg 86%
    21:00 -3°C° 0 mm 4 mps 744 mmHg 86%
    22:00 -3°C° 0 mm 4 mps 744 mmHg 86%
    23:00 -3°C° 0 mm 4 mps 744 mmHg 86%

    Day after tomorrow, 15 December, Sunday

    Time Temperature Precipitation Wind Pressure Humidity
    00:00 -3°C° 0.1 mm 4 mps 744 mmHg 88%
    01:00 -3°C° 0.1 mm 4 mps 744 mmHg 91%
    02:00 -3°C° 0.1 mm 4 mps 743 mmHg 93%
    03:00 -3°C° 0.1 mm 4 mps 743 mmHg 93%
    04:00 -1°C° 0.1 mm 3 mps 742 mmHg 93%
    05:00 -1°C° 0.1 mm 3 mps 742 mmHg 93%
    06:00 -1°C° 0 mm 4 mps 742 mmHg 93%
    07:00 -1°C° 0 mm 4 mps 741 mmHg 94%
    08:00 0°C° 0 mm 4 mps 741 mmHg 94%
    09:00 0°C° 0 mm 4 mps 741 mmHg 94%
    10:00 +1°C° 0 mm 4 mps 741 mmHg 93%
    11:00 +1°C° 0 mm 4 mps 740 mmHg 93%
    12:00 +1°C° 0.3 mm 4 mps 740 mmHg 93%
    13:00 +1°C° 0.3 mm 4 mps 740 mmHg 94%
    14:00 +3°C° 0.3 mm 4 mps 740 mmHg 94%
    15:00 +1°C° 0.3 mm 4 mps 740 mmHg 94%
    16:00 +1°C° 0.3 mm 4 mps 740 mmHg 94%
    17:00 +1°C° 0.3 mm 4 mps 740 mmHg 94%
    18:00 +1°C° 0.1 mm 4 mps 741 mmHg 92%
    19:00 +1°C° 0.1 mm 3 mps 741 mmHg 91%
    20:00 0°C° 0.1 mm 3 mps 741 mmHg 89%
    21:00 0°C° 0 mm 3 mps 741 mmHg 91%
    22:00 -1°C° 0 mm 3 mps 742 mmHg 92%
    23:00 -1°C° 0 mm 3 mps 742 mmHg 94%

    16 December, Monday

    Time Temperature Precipitation Wind Pressure Humidity
    00:00 -1°C° 0 mm 3 mps 741 mmHg 92%
    01:00 -2°C° 0 mm 4 mps 741 mmHg 90%
    02:00 -1°C° 0 mm 4 mps 741 mmHg 89%
    03:00 0°C° 0.3 mm 5 mps 740 mmHg 90%
    04:00 0°C° 0.3 mm 5 mps 740 mmHg 91%
    05:00 +1°C° 0.3 mm 5 mps 740 mmHg 93%
    06:00 +1°C° 0 mm 5 mps 740 mmHg 91%
    07:00 0°C° 0 mm 5 mps 741 mmHg 88%
    08:00 0°C° 0 mm 4 mps 741 mmHg 86%
    09:00 0°C° 0 mm 5 mps 741 mmHg 84%
    10:00 0°C° 0 mm 5 mps 742 mmHg 82%
    11:00 -1°C° 0 mm 6 mps 742 mmHg 80%
    12:00 -1°C° 0 mm 6 mps 742 mmHg 79%
    13:00 -1°C° 0 mm 6 mps 742 mmHg 77%
    14:00 -1°C° 0 mm 6 mps 742 mmHg 76%
    15:00 -1°C° 0 mm 6 mps 742 mmHg 78%
    16:00 -1°C° 0 mm 6 mps 743 mmHg 80%
    17:00 -1°C° 0 mm 6 mps 743 mmHg 82%
    18:00 0°C° 0 mm 5 mps 744 mmHg 83%
    19:00 0°C° 0 mm 5 mps 744 mmHg 84%
    20:00 0°C° 0 mm 4 mps 745 mmHg 85%
    21:00 -1°C° 0 mm 4 mps 745 mmHg 86%
    22:00 -1°C° 0 mm 4 mps 746 mmHg 88%
    23:00 -1°C° 0 mm 3 mps 746 mmHg 89%

    17 December, Tuesday

    Time Temperature Precipitation Wind Pressure Humidity
    00:00 -1°C° 0 mm 3 mps 746 mmHg 89%
    01:00 -1°C° 0 mm 3 mps 745 mmHg 90%
    02:00 -1°C° 0 mm 3 mps 745 mmHg 90%
    03:00 -2°C° 0 mm 4 mps 745 mmHg 87%
    04:00 -2°C° 0 mm 4 mps 745 mmHg 83%
    05:00 -1°C° 0 mm 4 mps 744 mmHg 80%
    06:00 -1°C° 0 mm 4 mps 744 mmHg 83%
    07:00 0°C° 0 mm 4 mps 744 mmHg 86%
    08:00 0°C° 0 mm 4 mps 744 mmHg 89%
    09:00 +1°C° 0 mm 4 mps 744 mmHg 90%
    10:00 +2°C° 0 mm 3 mps 744 mmHg 91%
    11:00 +2°C° 0 mm 3 mps 744 mmHg 91%
    12:00 +2°C° 0 mm 3 mps 744 mmHg 92%
    13:00 +2°C° 0 mm 3 mps 744 mmHg 93%
    14:00 +3°C° 0 mm 2 mps 744 mmHg 94%
    15:00 +3°C° 0 mm 2 mps 744 mmHg 95%
    16:00 +3°C° 0 mm 2 mps 744 mmHg 95%
    17:00 +3°C° 0 mm 2 mps 744 mmHg 96%
    18:00 +3°C° 0.1 mm 2 mps 744 mmHg 96%
    19:00 +2°C° 0.1 mm 2 mps 743 mmHg 97%
    20:00 +2°C° 0.1 mm 2 mps 743 mmHg 97%
    21:00 +2°C° 0.2 mm 2 mps 743 mmHg 97%
    22:00 +2°C° 0.2 mm 2 mps 743 mmHg 97%
    23:00 +2°C° 0.2 mm 2 mps 743 mmHg 98%

    18 December, Wednesday

    Time Temperature Precipitation Wind Pressure Humidity
    00:00 +2°C° 0.1 mm 2 mps 743 mmHg 97%
    01:00 +2°C° 0.1 mm 2 mps 742 mmHg 97%
    02:00 +2°C° 0.1 mm 2 mps 742 mmHg 97%
    03:00 +2°C° 0.4 mm 2 mps 742 mmHg 97%
    04:00 +2°C° 0.4 mm 2 mps 742 mmHg 97%
    05:00 +3°C° 0.4 mm 2 mps 741 mmHg 97%
    06:00 +2°C° 0.5 mm 2 mps 741 mmHg 98%
    07:00 +2°C° 0.5 mm 2 mps 740 mmHg 98%
    08:00 +2°C° 0.5 mm 2 mps 740 mmHg 98%
    09:00 +2°C° 0.7 mm 2 mps 739 mmHg 98%
    10:00 +3°C° 0.7 mm 2 mps 739 mmHg 97%
    11:00 +3°C° 0.7 mm 2 mps 738 mmHg 97%
    12:00 +3°C° 0.6 mm 2 mps 737 mmHg 97%
    13:00 +2°C° 0.6 mm 3 mps 736 mmHg 97%
    14:00 +2°C° 0.6 mm 3 mps 735 mmHg 96%
    15:00 +2°C° 1.5 mm 3 mps 734 mmHg 96%
    16:00 +2°C° 1.5 mm 3 mps 734 mmHg 96%
    17:00 +2°C° 1.5 mm 3 mps 733 mmHg 96%
    18:00 +1°C° 1.3 mm 4 mps 733 mmHg 96%
    19:00 0°C° 1.3 mm 5 mps 733 mmHg 96%
    20:00 -2°C° 1.3 mm 6 mps 734 mmHg 96%
    21:00 -2°C° 0.4 mm 6 mps 735 mmHg 94%
    22:00 -2°C° 0.4 mm 6 mps 737 mmHg 92%
    23:00 -2°C° 0.4 mm 6 mps 738 mmHg 90%
    Show more